Weather Roundup
Issued by NWS Springfield, MO

Home | Current Version | Previous Version | Text Only | Print | Product List | Glossary On
Versions: 1 2 3 4 5 6 7 8 9 10 11 12 13 14 15 16 17 18 19 20 21 22 23 24 25 26 27 28 29 30 31 32 33 34 35 36 37 38 39 40 41 42 43 44 45 46 47 48 49 50
000
NZUS99 KSGF 300510
HRRSGF

HOURLY WEATHER
NATIONAL WEATHER SERVICE SPRINGFIELD MO
1200 AM CDT SUN AUG 30 2015

......SGF CWA......

CITY           SKY/WX    TMP DP  RH WIND       PRES   REMARKS
SPRINGFIELD    PTCLDY    69  66  90 SE6       30.02F
JOPLIN         CLOUDY    72  70  93 CALM      30.01S FOG
WEST PLAINS    PTCLDY    68  64  87 S3        30.06F
ROLLA          CLEAR     68  65  90 SW8       30.03S
OSAGE BEACH    MOCLDY    72  68  88 S7        30.03S
BRANSON        MOCLDY    70  66  88 CALM      30.04S

......SURROUNDING SGF CWA......

CITY           SKY/WX    TMP DP  RH WIND       PRES   REMARKS
CHANUTE        CLEAR     67  66  97 N3        30.03R
PARSONS        CLEAR     67  66  97 CALM      30.03S
COFFEYVILLE    CLEAR     68  65  90 NW5       30.01S
EMPORIA        CLEAR     62  62 100 NE5       30.05S FOG
GROVE OK       CLOUDY    75  75 100 CALM      30.00F
ROGERS AR      MOCLDY    73  69  87 E5        30.03S
SILOAM SPRINGS CLOUDY    73  66  78 SE3       30.00F
NEAR YELLVILLE CLOUDY    70  63  78 CALM      30.01S

......KANSAS AND MISSOURI......

CITY           SKY/WX    TMP DP  RH WIND       PRES   REMARKS
KANSAS CTY INT MOCLDY    65  64  97 NW6       30.05S
DOWNTOWN KC    CLOUDY    71  66  84 N3        30.03F
COLUMBIA       MOCLDY    72  69  90 N3        30.03S
SEDALIA        CLEAR     70  68  93 S5        30.03S FOG
ST JOSEPH      MOCLDY    61  60  97 NW3       30.06R
ST LOUIS       MOCLDY    75  70  83 S5        30.01F
SPIRIT OF STL  MOCLDY    73  71  93 CALM      30.01S
KIRKSVILLE     FOG       65  63  93 CALM      30.04F VSB 1/4
WICHITA        CLEAR     66  61  84 NE7       30.04S
TOPEKA         PTCLDY    66  64  93 CALM      30.06S
OLATHE         MOCLDY    69  66  90 N7        30.03F

......TENNESSEE......

CITY           SKY/WX    TMP DP  RH WIND       PRES   REMARKS
MEMPHIS        CLOUDY    81  70  69 S12       30.03S
NASHVILLE      PTCLDY    71  66  84 CALM      30.10S

......ARKANSAS.......

CITY           SKY/WX    TMP DP  RH WIND       PRES   REMARKS
FAYETTEVILLE   CLOUDY    72  69  90 CALM      30.02S FOG
FT SMITH       PTCLDY    75  69  81 NE6       29.98R
LITTLE ROCK    PTCLDY    76  68  76 CALM      30.01S

......OKLAHOMA.......

CITY           SKY/WX    TMP DP  RH WIND       PRES   REMARKS
TULSA          CLOUDY    76  69  79 N6        29.98R
PONCA CITY     CLEAR     68  63  84 NE6       30.01S
MCALESTER      CLOUDY    77  71  82 S6        29.98F
OKLAHOMA CITY  MOCLDY    76  65  68 NE10      29.99F

......IOWA............

CITY           SKY/WX    TMP DP  RH WIND       PRES   REMARKS
DES MOINES     PTCLDY    66  62  87 CALM      30.04S
QUAD CITIES    FOG       62  61  96 CALM      30.03S VSB<1/4

......ILLINOIS........

CITY           SKY/WX    TMP DP  RH WIND       PRES   REMARKS
QUINCY         CLOUDY    72  69  90 NE5       30.02S
CHICAGO        CLOUDY    66  64  93 N6        30.03S FOG



USA.gov is the U.S. government's official web portal to all federal, state and local government web resources and services.